When you browse on this site, cookies collect data to enhance your experience and personalize the content and advertising you see.
Visit our Privacy Policy to learn more. By continuing to use the site, you agree to this use of cookies and data.
  • In Czech Republic
  • List of Countries
  • For 7 days
  • Water Temperature
  • Weather Map
  • Weather Widgets
  • user-avatar
    Login

    Hourly Weather Nizhnie Marmyzhi

    Today, 4 April, Saturday

    Time Temperature Precipitation Wind Pressure Humidity
    00:00 +4°C° 0 mm 4 mps 740 mmHg 71%
    01:00 +4°C° 0 mm 3 mps 740 mmHg 79%
    02:00 +4°C° 0 mm 2 mps 741 mmHg 88%
    03:00 +3°C° 0 mm 3 mps 741 mmHg 89%
    04:00 +2°C° 0 mm 3 mps 741 mmHg 91%
    05:00 +2°C° 0 mm 3 mps 742 mmHg 92%
    06:00 +3°C° 0 mm 4 mps 742 mmHg 84%
    07:00 +4°C° 0 mm 4 mps 743 mmHg 76%
    08:00 +5°C° 0 mm 5 mps 743 mmHg 68%
    09:00 +4°C° 0.1 mm 6 mps 744 mmHg 61%
    10:00 +5°C° 0.1 mm 6 mps 744 mmHg 54%
    11:00 +6°C° 0.1 mm 7 mps 744 mmHg 48%
    12:00 +6°C° 0.1 mm 7 mps 745 mmHg 45%
    13:00 +6°C° 0.1 mm 7 mps 745 mmHg 42%
    14:00 +7°C° 0 mm 6 mps 745 mmHg 39%
    15:00 +7°C° 0.1 mm 6 mps 746 mmHg 41%
    16:00 +5°C° 0.1 mm 6 mps 746 mmHg 43%
    17:00 +5°C° 0.1 mm 6 mps 747 mmHg 45%
    18:00 +5°C° 0 mm 5 mps 747 mmHg 51%
    19:00 +4°C° 0 mm 4 mps 748 mmHg 58%
    20:00 +3°C° 0 mm 3 mps 748 mmHg 64%
    21:00 +2°C° 0 mm 3 mps 749 mmHg 67%
    22:00 +2°C° 0 mm 3 mps 749 mmHg 69%
    23:00 +1°C° 0 mm 3 mps 750 mmHg 71%

    Tomorrow, 5 April, Sunday

    Time Temperature Precipitation Wind Pressure Humidity
    00:00 +2°C° 0 mm 2 mps 750 mmHg 71%
    01:00 +1°C° 0 mm 2 mps 750 mmHg 71%
    02:00 +1°C° 0 mm 2 mps 750 mmHg 72%
    03:00 +1°C° 0 mm 2 mps 751 mmHg 71%
    04:00 -1°C° 0 mm 3 mps 751 mmHg 70%
    05:00 -1°C° 0 mm 3 mps 751 mmHg 70%
    06:00 +1°C° 0 mm 3 mps 751 mmHg 65%
    07:00 +1°C° 0 mm 4 mps 751 mmHg 61%
    08:00 +2°C° 0 mm 5 mps 751 mmHg 57%
    09:00 +2°C° 0.3 mm 5 mps 751 mmHg 60%
    10:00 +2°C° 0.3 mm 6 mps 751 mmHg 64%
    11:00 +2°C° 0.3 mm 7 mps 751 mmHg 68%
    12:00 +2°C° 0.2 mm 8 mps 751 mmHg 59%
    13:00 +2°C° 0.2 mm 9 mps 751 mmHg 51%
    14:00 +3°C° 0.2 mm 10 mps 751 mmHg 42%
    15:00 +2°C° 0 mm 9 mps 751 mmHg 42%
    16:00 +2°C° 0 mm 8 mps 751 mmHg 42%
    17:00 +2°C° 0 mm 7 mps 752 mmHg 42%
    18:00 0°C° 0 mm 7 mps 752 mmHg 48%
    19:00 +1°C° 0 mm 6 mps 753 mmHg 54%
    20:00 0°C° 0 mm 5 mps 753 mmHg 60%
    21:00 -1°C° 0 mm 5 mps 753 mmHg 59%
    22:00 -1°C° 0 mm 5 mps 754 mmHg 58%
    23:00 -2°C° 0 mm 5 mps 754 mmHg 58%

    Day after tomorrow, 6 April, Monday

    Time Temperature Precipitation Wind Pressure Humidity
    00:00 -2°C° 0 mm 5 mps 754 mmHg 58%
    01:00 -2°C° 0 mm 5 mps 755 mmHg 58%
    02:00 -2°C° 0 mm 5 mps 755 mmHg 58%
    03:00 -4°C° 0 mm 5 mps 755 mmHg 58%
    04:00 -4°C° 0 mm 5 mps 755 mmHg 58%
    05:00 -4°C° 0 mm 5 mps 756 mmHg 58%
    06:00 -2°C° 0 mm 5 mps 756 mmHg 52%
    07:00 -2°C° 0 mm 6 mps 756 mmHg 45%
    08:00 -2°C° 0 mm 6 mps 756 mmHg 39%
    09:00 -1°C° 0 mm 6 mps 756 mmHg 39%
    10:00 +1°C° 0 mm 6 mps 756 mmHg 39%
    11:00 +2°C° 0 mm 6 mps 756 mmHg 39%
    12:00 +3°C° 0 mm 6 mps 756 mmHg 42%
    13:00 +3°C° 0 mm 6 mps 756 mmHg 46%
    14:00 +3°C° 0 mm 5 mps 756 mmHg 49%
    15:00 +3°C° 0 mm 5 mps 756 mmHg 54%
    16:00 +3°C° 0 mm 5 mps 756 mmHg 59%
    17:00 +4°C° 0 mm 4 mps 756 mmHg 64%
    18:00 +3°C° 0 mm 4 mps 756 mmHg 72%
    19:00 +1°C° 0 mm 4 mps 757 mmHg 81%
    20:00 +1°C° 0 mm 3 mps 757 mmHg 89%
    21:00 +1°C° 0 mm 3 mps 757 mmHg 83%
    22:00 0°C° 0 mm 3 mps 758 mmHg 76%
    23:00 +1°C° 0 mm 2 mps 758 mmHg 69%

    7 April, Tuesday

    Time Temperature Precipitation Wind Pressure Humidity
    00:00 -1°C° 0 mm 2 mps 759 mmHg 64%
    01:00 -1°C° 0 mm 2 mps 759 mmHg 59%
    02:00 0°C° 0 mm 1 mps 759 mmHg 54%
    03:00 0°C° 0 mm 1 mps 760 mmHg 52%
    04:00 0°C° 0 mm 1 mps 760 mmHg 50%
    05:00 0°C° 0 mm 1 mps 760 mmHg 47%
    06:00 +1°C° 0 mm 1 mps 760 mmHg 42%
    07:00 +2°C° 0 mm 1 mps 761 mmHg 37%
    08:00 +3°C° 0 mm 1 mps 761 mmHg 32%
    09:00 +4°C° 0 mm 1 mps 761 mmHg 33%
    10:00 +4°C° 0 mm 2 mps 760 mmHg 33%
    11:00 +5°C° 0 mm 2 mps 760 mmHg 33%
    12:00 +5°C° 0 mm 3 mps 760 mmHg 36%
    13:00 +7°C° 0 mm 3 mps 760 mmHg 39%
    14:00 +8°C° 0 mm 3 mps 759 mmHg 42%
    15:00 +7°C° 0 mm 4 mps 759 mmHg 48%
    16:00 +7°C° 0 mm 4 mps 758 mmHg 53%
    17:00 +7°C° 0 mm 4 mps 758 mmHg 59%
    18:00 +7°C° 0 mm 3 mps 757 mmHg 65%
    19:00 +5°C° 0 mm 3 mps 757 mmHg 72%
    20:00 +4°C° 0 mm 3 mps 757 mmHg 78%
    21:00 +4°C° 0 mm 3 mps 756 mmHg 79%
    22:00 +4°C° 0 mm 3 mps 756 mmHg 80%
    23:00 +4°C° 0 mm 4 mps 755 mmHg 81%

    8 April, Wednesday

    Time Temperature Precipitation Wind Pressure Humidity
    00:00 +4°C° 0 mm 4 mps 755 mmHg 81%
    01:00 +3°C° 0 mm 5 mps 754 mmHg 82%
    02:00 +3°C° 0 mm 6 mps 753 mmHg 82%
    03:00 +2°C° 0 mm 6 mps 753 mmHg 83%
    04:00 +2°C° 0 mm 6 mps 752 mmHg 85%
    05:00 +2°C° 0 mm 6 mps 751 mmHg 86%
    06:00 +3°C° 0 mm 6 mps 750 mmHg 80%
    07:00 +4°C° 0 mm 6 mps 750 mmHg 73%
    08:00 +6°C° 0 mm 7 mps 749 mmHg 67%
    09:00 +7°C° 0.1 mm 6 mps 749 mmHg 69%
    10:00 +8°C° 0.1 mm 6 mps 748 mmHg 71%
    11:00 +8°C° 0.1 mm 6 mps 748 mmHg 73%
    12:00 +9°C° 0.1 mm 5 mps 748 mmHg 71%
    13:00 +9°C° 0.1 mm 5 mps 747 mmHg 70%
    14:00 +10°C° 0.1 mm 5 mps 747 mmHg 68%
    15:00 +9°C° 0 mm 5 mps 747 mmHg 67%
    16:00 +9°C° 0 mm 5 mps 747 mmHg 66%
    17:00 +9°C° 0 mm 5 mps 747 mmHg 66%
    18:00 +8°C° 0 mm 4 mps 747 mmHg 72%
    19:00 +7°C° 0 mm 4 mps 747 mmHg 79%
    20:00 +7°C° 0 mm 3 mps 747 mmHg 86%
    21:00 +7°C° 0 mm 3 mps 747 mmHg 87%
    22:00 +5°C° 0 mm 3 mps 747 mmHg 89%
    23:00 +5°C° 0 mm 3 mps 747 mmHg 91%

    9 April, Thursday

    Time Temperature Precipitation Wind Pressure Humidity
    00:00 +5°C° 0 mm 2 mps 747 mmHg 92%
    01:00 +5°C° 0 mm 2 mps 747 mmHg 92%
    02:00 +4°C° 0 mm 2 mps 747 mmHg 93%
    03:00 +4°C° 0 mm 2 mps 747 mmHg 93%
    04:00 +4°C° 0 mm 2 mps 747 mmHg 93%
    05:00 +3°C° 0 mm 2 mps 747 mmHg 93%
    06:00 +5°C° 0 mm 2 mps 746 mmHg 88%
    07:00 +5°C° 0 mm 3 mps 746 mmHg 83%
    08:00 +8°C° 0 mm 3 mps 746 mmHg 78%
    09:00 +9°C° 0 mm 3 mps 745 mmHg 71%
    10:00 +10°C° 0 mm 4 mps 745 mmHg 65%
    11:00 +10°C° 0 mm 5 mps 745 mmHg 58%
    12:00 +12°C° 0 mm 5 mps 744 mmHg 55%
    13:00 +13°C° 0 mm 5 mps 743 mmHg 52%
    14:00 +13°C° 0 mm 5 mps 743 mmHg 50%
    15:00 +13°C° 0 mm 5 mps 742 mmHg 51%
    16:00 +13°C° 0 mm 5 mps 741 mmHg 52%
    17:00 +13°C° 0 mm 5 mps 741 mmHg 54%
    18:00 +12°C° 0 mm 4 mps 740 mmHg 59%
    19:00 +11°C° 0 mm 4 mps 740 mmHg 64%
    20:00 +10°C° 0 mm 4 mps 740 mmHg 70%
    21:00 +10°C° 0.1 mm 4 mps 739 mmHg 73%
    22:00 +8°C° 0.1 mm 4 mps 739 mmHg 76%
    23:00 +8°C° 0.1 mm 4 mps 739 mmHg 79%
    Show more